SB KEPS @ AMSAT $ORB11083.N 2Line Orbital Elements 11083.AMSAT
HR AMSAT ORBITAL ELEMENTS FOR AMATEUR SATELLITES IN NASA FORMAT FROM WA5QGD FORT WORTH,TX March 24, 2011 Send Subscribe/unsubscribe to KEPS at http://www.amsat.org/mailman/listinfo/keps BID: ORB11083.N
DECODE 2-LINE ELSETS WITH THE FOLLOWING KEY: 1 AAAAAU 00 0 0 BBBBB.BBBBBBBB .CCCCCCCC 00000-0 00000-0 0 DDDZ 2 AAAAA EEE.EEEE FFF.FFFF GGGGGGG HHH.HHHH III.IIII JJ.JJJJJJJJKKKKKZ KEY: A-CATALOGNUM B-EPOCHTIME C-DECAY D-ELSETNUM E-INCLINATION F-RAAN G-ECCENTRICITY H-ARGPERIGEE I-MNANOM J-MNMOTION K-ORBITNUM Z-CHECKSUM
TO ALL RADIO AMATEURS BT
AO-07 1 07530U 74089B 11083.56174284 -.00000027 00000-0 10000-3 0 358 2 07530 101.3951 093.4404 0012124 085.5810 274.6642 12.53581679663584 FO-29 1 24278U 96046B 11082.93836888 -.00000038 00000-0 -52461-5 0 05490 2 24278 098.5339 238.6091 0351300 118.1730 245.5355 13.52958780720932 SO-33 1 25509U 98061B 11082.89848911 -.00000082 00000-0 -30860-4 0 09314 2 25509 031.4349 006.6865 0354318 215.7646 141.8759 14.28373779648074 RS-22 1 27939U 03042A 11083.65269505 .00000183 00000-0 43988-4 0 1024 2 27939 097.8562 301.6431 0012500 253.3985 106.5861 14.63531944399974 VO-52 1 28650U 05017B 11083.29428582 .00000658 00000-0 88836-4 0 7508 2 28650 097.6513 130.1877 0028159 080.3074 280.1359 14.81953106318174 SO-67 1 35870U 09049F 11083.81098318 .00001322 00000-0 61790-4 0 6763 2 35870 097.2918 129.9232 0003016 162.2358 318.4322 15.21473638 84113 HO-68 1 36122U 09072B 11083.71790125 -.00000044 00000-0 00000 0 0 2224 2 36122 100.4250 145.7802 0008065 059.7237 300.4670 13.16284820 61122 UO-11 1 14781U 84021B 11083.89602174 .00000096 00000-0 19789-4 0 5030 2 14781 098.0150 140.8336 0009927 055.4379 304.7768 14.79912393453321 AO-16 1 20439U 90005D 11083.82059425 .00000051 00000-0 34863-4 0 1479 2 20439 098.3751 036.2988 0011835 055.8412 304.3897 14.31902742105544 LO-19 1 20442U 90005G 11082.93522316 .00000002 00000-0 16336-4 0 00737 2 20442 098.3371 040.1259 0012676 052.7780 307.4551 14.32129337105597 AO-27 1 22825U 93061C 11082.88766325 .00000062 00000-0 41202-4 0 7769 2 22825 098.5236 029.1357 0008386 160.7224 199.4275 14.29332502912008 IO-26 1 22826U 93061D 11082.97268485 .00000031 00000-0 28774-4 0 05183 2 22826 098.5175 029.7217 0009142 155.3658 204.7964 14.29592804912136 GO-32 1 25397U 98043D 11082.63329401 -.00000061 00000-0 -89052-5 0 04386 2 25397 098.3228 079.7882 0001789 133.2263 226.9063 14.23199658659798 NO-44 1 26931U 01043C 11082.69253555 .00000199 00000-0 10976-3 0 7095 2 26931 067.0530 203.8178 0007137 268.3421 091.6850 14.29642021494701 SO-50 1 27607U 02058C 11083.80590316 .00000222 00000-0 56306-4 0 4223 2 27607 064.5581 224.0683 0063220 340.4665 019.4023 14.71671555443674 CO-55 1 27844U 03031E 11083.52900663 .00000113 00000-0 72333-4 0 725 2 27844 098.7085 093.4574 0010664 082.8816 277.3576 14.20781002400899 CO-57 1 27848U 03031J 11082.54372424 .00000114 00000-0 73353-4 0 00205 2 27848 098.7135 091.6464 0010482 088.5724 271.6654 14.20564409400700 AO-51 1 28375U 04025K 11083.86930625 .00000152 00000-0 58418-4 0 9277 2 28375 098.0900 066.7838 0084174 326.6119 032.9779 14.40736329353921 CP3 1 31129U 07012N 11082.72629152 .00000310 00000-0 81108-4 0 08289 2 31129 097.9078 111.8521 0103520 086.5635 274.7369 14.52403359208432 CO-65 1 32785U 08021C 11082.66598292 .00000183 00000-0 29723-4 0 09466 2 32785 097.8571 148.1666 0016131 095.4496 264.8558 14.81871986156873 KKS-1 1 33493U 09002B 11083.74080714 .00000981 00000-0 13218-3 0 4246 2 33493 098.1135 211.1963 0019014 316.5040 043.4677 14.81419641117018 SOHLA-1 1 33496U 09002E 11082.94209019 .00000107 00000-0 26329-4 0 03754 2 33496 098.0719 193.6798 0007365 040.9512 319.2247 14.69572259115966 TISAT-1 1 36799U 10035E 11083.85714312 .00000592 00000-0 84585-4 0 7007 2 36799 098.1102 151.2515 0015393 184.9013 175.2033 14.80378280 37837 STUDSAT 1 36801U 10035G 11083.79572391 .00001531 00000-0 20847-3 0 1539 2 36801 098.1159 151.0372 0014067 174.2352 185.9023 14.80162644 37817 RAX 1 37223U 0 11082.82823385 .00000182 00000-0 33475-4 0 01166 2 37223 071.9684 227.1148 0019094 081.6414 278.6911 14.77282400018284 OOREOS 1 37224U 10062C 11076.42207246 .00000868 00000-0 13086-3 0 01095 2 37224 071.9712 241.3960 0017800 096.5373 263.7815 14.76929834017329 NANOSALD 1 37225U 0 11080.41235428 .00056672 00000-0 69550-2 0 00970 2 37225 071.9730 232.2252 0024394 042.6308 317.6744 14.82560370009031 FAST1-2 1 37227U 0 11083.50823927 -.00001250 00000-0 -17173-3 0 01130 2 37227 071.9750 225.9693 0015956 075.6242 284.6298 14.76293525018361 NOAA-10 1 16969U 86073A 11082.69460423 -.00000023 00000-0 85432-5 0 04393 2 16969 098.6275 113.6109 0013134 113.6834 246.5733 14.27448830275453 NOAA-11 1 19531U 88089A 11082.77641525 -.00000032 00000-0 57953-5 0 04457 2 19531 098.7522 171.8556 0011997 073.7126 286.5350 14.14907738160673 NOAA-12 1 21263U 91032A 11083.80005556 .00000088 00000-0 37258-4 0 9413 2 21263 098.7551 101.7798 0013339 073.4741 286.8377 14.25692778 32433 MET-3/5 1 21655U 91056A 11083.65685642 .00000051 00000-0 10000-3 0 682 2 21655 082.5528 110.5036 0013811 014.0774 346.0799 13.17027530942590 MET-2/21 1 22782U 93055A 11083.79491990 .00000137 00000-0 11054-3 0 507 2 22782 082.5500 029.8280 0021971 339.6961 020.3336 13.83655519886880 OKEAN-4 1 23317U 94066A 11083.82603730 .00000395 00000-0 45473-4 0 5072 2 23317 082.5363 091.9085 0023399 040.3200 319.9744 14.82970892888047 NOAA-14 1 23455U 94089A 11082.97014320 .00000079 00000-0 64911-4 0 04410 2 23455 098.8544 166.4464 0009612 156.6082 203.5529 14.13810528837036 NOAA-15 1 25338U 98030A 11082.63744163 .00000051 00000-0 40329-4 0 07533 2 25338 098.6498 069.9806 0010408 347.1557 012.9350 14.24892210668542 RESURS 1 25394U 98043A 11082.96013861 .00000012 00000-0 22910-4 0 07576 2 25394 098.3002 090.6780 0002177 102.7001 257.4423 14.24226547660179 FENGYUN1 1 25730U 99025A 11082.93282636 .00000691 00000-0 42651-3 0 02869 2 25730 098.8130 046.0229 0022498 188.5513 171.5270 14.08545733611064 OKEAN-0 1 25860U 99039A 11083.90479783 .00000175 00000-0 34228-4 0 2631 2 25860 097.8744 052.7171 0000644 062.5721 297.5553 14.73731321628242 NOAA-16 1 26536U 00055A 11082.65611643 -.00000223 00000-0 -95025-4 0 02353 2 26536 099.1487 111.4297 0009713 272.6730 087.3331 14.12601878541287 NOAA-17 1 27453U 02032A 11082.75020005 -.00000057 00000-0 -67508-5 0 02290 2 27453 098.3898 126.3438 0012317 044.1158 316.0996 14.24247831454498 NOAA-18 1 28654U 05018A 11082.82234141 .00000137 00000-0 10064-3 0 07113 2 28654 098.9886 033.7998 0014264 349.0260 011.0589 14.11450268300880 NOAA-19 1 33591U 09005A 11082.80068840 .00000167 00000-0 11710-3 0 09044 2 33591 098.8217 024.4207 0013468 215.3670 144.6600 14.11143288109344 HUBBLE 1 20580U 90037B 11081.63129642 .00000849 00000-0 51819-4 0 7333 2 20580 028.4716 221.8120 0003172 281.0775 078.9467 15.01221220946639 ISS 1 25544U 98067A 11084.03009690 .00020956 00000-0 16115-3 0 643 2 25544 051.6460 232.6759 0001309 043.9545 060.3615 15.71987217707655 CO-58 1 28895U 05043F 11082.60808289 .00000260 00000-0 63386-4 0 08332 2 28895 097.9814 322.2477 0018967 128.2053 232.0873 14.60034222287759 FALCON 1 30776U 07006E 11082.56993320 .00001338 00000-0 97255-4 0 00656 2 30776 035.4328 147.4449 0000859 035.7065 324.3709 15.04252416222140 MAST 1 31126U 07012K 11082.96267249 .00000222 00000-0 60099-4 0 01299 2 31126 097.9042 114.9737 0095657 076.2986 284.8840 14.53693794208700 CAPE1 1 31130U 07012P 11082.73122696 .00000273 00000-0 72904-4 0 1345 2 31130 097.9076 111.6507 0103925 087.2257 274.0847 14.52316693208237 COMPASS 1 32787U 08021E 11083.69863272 .00001136 00000-0 14866-3 0 9410 2 32787 097.8545 149.0660 0016833 092.3759 267.9358 14.82218776157042 AAUSAT2 1 32788U 08021F 11083.60508368 .00000854 00000-0 11303-3 0 9312 2 32788 097.8547 149.1714 0016524 093.4319 266.8799 14.82386078157045 DO-64 1 32789U 08021G 11082.82860993 .00001585 00000-0 20249-3 0 09491 2 32789 097.8647 149.2609 0016601 094.3887 265.9201 14.82722033156937 CO-66 1 32791U 08021J 11083.69850432 .00001007 00000-0 13338-3 0 9330 2 32791 097.8565 149.0315 0017073 091.1269 269.1902 14.81946959156998 RS-30 1 32953U 08025A 11083.79505449 .00000010 00000-0 00000 0 0 5809 2 32953 082.5013 215.1763 0018716 207.6009 152.4076 12.43011236128600 TACSAT-3 1 35001U 09028A 11083.85085383 .00012383 00000-0 25033-3 0 5428 2 35001 040.4539 323.8802 0024742 302.0845 057.7595 15.45871298104017 PHARMSAT 1 35002U 09028B 11083.80707350 .00010579 00000-0 21391-3 0 5045 2 35002 040.4707 321.6299 0026175 305.0585 054.7801 15.45937232104037 HAWKSAT1 1 35003U 09028C 11083.81281473 .00036672 00000-0 52838-3 0 5569 2 35003 040.4570 302.9316 0024761 328.4671 031.4741 15.54885337104248 CP6 1 35004U 09028D 11083.83586771 .00045380 00000-0 58386-3 0 5606 2 35004 040.4570 297.6722 0024368 334.7511 025.2545 15.57857136104293 METEOR-M 1 35865U 09049A 11083.70571022 .00000176 00000-0 10000-3 0 2166 2 35865 098.7159 139.8920 0001747 290.6060 069.4877 14.21835499 78587 RS-38 1 35869U 09049E 11083.85670155 .00000177 00000-0 10000-3 0 2254 2 35869 098.7143 140.0812 0003758 279.3177 080.7563 14.22003498 78614 /EX
participants (1)
-
Ray Hoad